Regional Weather Roundup
Issued by NWS

Home | Current Version | Previous Version | Graphics & Text | Print | Product List | Glossary Off
Versions: 1 2 3 4 5 6 7 8 9 10 11 12 13 14 15 16 17 18 19 20 21 22 23 24 25 26 27 28 29 30 31 32 33 34 35 36 37 38 39 40 41 42 43 44 45 46 47 48 49 50

623
ASUS43 KDMX 270001
RWRIA

WEATHER ROUNDUP FOR IOWA
NATIONAL WEATHER SERVICE DES MOINES IA
700 PM CDT SUN MAR 26 2017

NOTE: "FAIR" INDICATES FEW OR NO CLOUDS BELOW 12,000 FEET WITH NO
SIGNIFICANT WEATHER AND/OR OBSTRUCTIONS TO VISIBILITY.

* - THESE STATIONS ARE NOT NWS STATIONS...THUS NOT UNDER NWS
QUALITY CONTROL.  THEY ALSO DO NOT REPORT WEATHER SUCH
AS PRECIPITATION OR FOG.

IAZ001>003-012>014-020>022-031>034-043>046-270100-
   NORTHWEST IOWA

CITY           SKY/WX    TMP DP  RH WIND       PRES   REMARKS
CARROLL *      CLOUDY    46  45  93 N9        29.88F
CHEROKEE *     CLOUDY    46  41  84 N9        29.90S
LE MARS *      CLOUDY    46  41  81 N9        29.91S
ORANGE CITY *  CLOUDY    46  41  81 N7        29.90F
SHELDON *      CLOUDY    45  45 100 N8        29.90S
SIOUX CITY     CLOUDY    48  40  73 N9        29.90S
6HR MIN TEMP:  44; 6HR MAX TEMP:  48;

SPENCER        CLOUDY    44  39  82 N8        29.92R
6HR MIN TEMP:  44; 6HR MAX TEMP:  46;

STORM LAKE *     N/A     45  41  87 MISG      29.90S
$$

IAZ055>058-069>071-079>083-090>094-270100-
   SOUTHWEST IOWA

CITY           SKY/WX    TMP DP  RH WIND       PRES   REMARKS
ATLANTIC *     CLOUDY    46  43  87 N8        29.90S
AUDUBON *      CLOUDY    46  43  87 N5        29.91R
CLARINDA *     CLOUDY    48  45  87 CALM      29.94R
COUNCIL BLFS * CLOUDY    48  46  93 NE6       29.90R
CRESTON *      CLOUDY    46  45  93 N8        29.90S
HARLAN  *      CLOUDY    46  46 100 NE8       29.93S
LAMONI         CLOUDY    48  43  82 N3        29.90R
6HR MIN TEMP:  45; 6HR MAX TEMP:  49;

RED OAK *      CLOUDY    48  43  81 NE3       29.91R
SHENANDOAH *   CLOUDY    48  43  81 N5        29.93R
$$

IAZ047>049-059>061-072>074-084-270100-
   CENTRAL IOWA

CITY           SKY/WX    TMP DP  RH WIND       PRES   REMARKS
AMES           CLOUDY    45  44  97 NW8       29.90S
6HR MIN TEMP:  45; 6HR MAX TEMP:  47;

ANKENY *       CLOUDY    46  43  87 N5        29.90F
BOONE *        CLOUDY    45  45 100 N8        29.89S
CHARITON *     CLOUDY    46  45  93 NW6       29.89F
DES MOINES     CLOUDY    48  43  82 N7        29.89F
6HR MIN TEMP:  46; 6HR MAX TEMP:  48;

GRINNELL*      CLOUDY    45  44  95 NW7       29.90F FOG
MARSHALLTOWN   CLOUDY    46  45  96 NW7       29.89R
6HR MIN TEMP:  45; 6HR MAX TEMP:  48;

NEWTON *       CLOUDY    46  43  87 NW6       29.89S
PELLA *        CLOUDY    46  45  95 NW7       29.91S
PERRY *        CLOUDY    46  44  93 NW8       29.90S
$$

IAZ004>006-015-016-023>025-035-036-270100-
   NORTH CENTRAL IOWA

CITY           SKY/WX    TMP DP  RH WIND       PRES   REMARKS
ALGONA *       CLOUDY    43  43 100 N8        29.91S
CLARION *      CLOUDY    45  45 100 N7        29.91R
ESTHERVILLE    CLOUDY    41  39  93 N9        29.91S
6HR MIN TEMP:  40; 6HR MAX TEMP:  42;

FORT DODGE *   CLOUDY    43  39  87 N5        29.92S
MASON CITY     CLOUDY    43  40  89 NW8       29.91R
6HR MIN TEMP:  43; 6HR MAX TEMP:  45;

FOREST CITY *  CLOUDY    41  41 100 N7        29.90S
WEBSTER CITY * CLOUDY    45  43  93 N8        29.89R
IOWA FALLS *   CLOUDY    46  44  93 NW5       29.91R
$$

IAZ007>011-017>019-026>030-037>042-050>054-066-270100-
   NORTHEAST IOWA

CITY           SKY/WX    TMP DP  RH WIND       PRES   REMARKS
CEDAR RAPIDS   CLOUDY    46  46 100 NW6       29.88R
6HR MIN TEMP:  44; 6HR MAX TEMP:  49;

CHARLES CITY * CLOUDY    43  43 100 N8        29.89S
CLINTON *      CLOUDY    51  50  96 W12       29.87R
DECORAH *      CLOUDY    43  41  93 N8        29.87S
DUBUQUE        CLOUDY    46  44  93 N5        29.85R
6HR MIN TEMP:  46; 6HR MAX TEMP:  48;

MONTICELLO *   CLOUDY    48  45  87 NW7       29.87R
OELWEIN *      CLOUDY    45  45 100 NW7       29.89R
WATERLOO       CLOUDY    46  42  86 NW8       29.89R
6HR MIN TEMP:  44; 6HR MAX TEMP:  48;

$$

IAZ064-065-067-068-078-270100-
   EAST CENTRAL IOWA

CITY           SKY/WX    TMP DP  RH WIND       PRES   REMARKS
DAVENPORT      CLOUDY    50  48  93 W10       29.88R FOG
6HR MIN TEMP:  50; 6HR MAX TEMP:  58; 6HR PCP:  0.01;

IOWA CITY      CLOUDY    50  45  83 NW9       29.91R
6HR MIN TEMP:  49; 6HR MAX TEMP:  52;

MUSCATINE *    CLOUDY    50  46  87 W10       29.91R
QUAD CITIES    CLOUDY    51  48  89 W10       29.88R FOG
6HR MIN TEMP:  51; 6HR MAX TEMP:  55;

$$

IAZ062-063-075>077-085>089-095>099-270100-
   SOUTHEAST IOWA

CITY           SKY/WX    TMP DP  RH WIND       PRES   REMARKS
BURLINGTON     CLOUDY    49  47  93 W8        29.90R
6HR MIN TEMP:  49; 6HR MAX TEMP:  50; 6HR PCP: TRACE;

FAIRFIELD *    CLOUDY    48  46  93 NW7       29.90S
FORT MADISON * CLOUDY    48  48 100 W5        29.91F FOG
KEOKUK *       CLOUDY    50  46  87 W6        29.90S
OSKALOOSA *    CLOUDY    46  45  95 NW6       29.90S FOG
OTTUMWA        CLOUDY    48  46  93 N8        29.89S
6HR MIN TEMP:  47; 6HR MAX TEMP:  49;

WASHINGTON *   CLOUDY    48  46  93 W6        29.91S
$$

ABBREVIATIONS USED IN REMARKS
   TC - TEMPERATURES IN CELSIUS
  WCI - WIND CHILL INDEX
   HX - HEAT INDEX
  VSB - VISIBILITY
$$





USA.gov is the U.S. government's official web portal to all federal, state and local government web resources and services.